This is the latest recevied weather packets stored in our database for station/object OK2JV-13. If no packets are shown the sender has not sent any weather packets the latest 10 day(s).
| Time | Temp. | Humidity | Pressure | Rain* | Wind** | Luminosity | Snow |
|---|---|---|---|---|---|---|---|
| 1787844613 | 26.11° C | 43% | 1017.3 hPa | - | - | - | - |
| 1787844007 | 26.11° C | 42% | 1017.4 hPa | - | - | - | - |
| 1787843403 | 26.11° C | 42% | 1017.2 hPa | - | - | - | - |
| 1787842799 | 26.67° C | 42% | 1017.3 hPa | - | - | - | - |
| 1787842197 | 26.67° C | 42% | 1017.3 hPa | - | - | - | - |
| 1787841592 | 27.22° C | 41% | 1017.4 hPa | - | - | - | - |
| 1787840986 | 27.22° C | 41% | 1017.4 hPa | - | - | - | - |
| 1787840382 | 27.22° C | 42% | 1017.2 hPa | - | - | - | - |
| 1787839778 | 27.78° C | 37% | 1017.3 hPa | - | - | - | - |
| 1787839177 | 27.78° C | 39% | 1017.5 hPa | - | - | - | - |
| 1787838570 | 27.78° C | 40% | 1017.5 hPa | - | - | - | - |
| 1787837966 | 27.22° C | 42% | 1017.6 hPa | - | - | - | - |
| 1787837361 | 27.22° C | 42% | 1017.6 hPa | - | - | - | - |
| 1787836756 | 27.22° C | 42% | 1017.5 hPa | - | - | - | - |
| 1787836152 | 27.22° C | 43% | 1017.7 hPa | - | - | - | - |
| 1787835546 | 27.22° C | 43% | 1017.6 hPa | - | - | - | - |
| 1787834942 | 26.67° C | 45% | 1017.3 hPa | - | - | - | - |
| 1787834338 | 26.67° C | 44% | 1017.5 hPa | - | - | - | - |
| 1787833734 | 26.11° C | 45% | 1017 hPa | - | - | - | - |
| 1787833130 | 25.56° C | 46% | 1017 hPa | - | - | - | - |
| 1787832526 | 25.56° C | 46% | 1017.1 hPa | - | - | - | - |
| 1787831923 | 25.56° C | 45% | 1017 hPa | - | - | - | - |
| 1787831318 | 25.56° C | 44% | 1017.1 hPa | - | - | - | - |
| 1787830714 | 25.56° C | 46% | 1017.3 hPa | - | - | - | - |
| 1787830110 | 25.56° C | 44% | 1017.1 hPa | - | - | - | - |
* Rain since midnight (hover to see other rain measurements)
** Current wind speed in m/s (hover to see current wind gust speed)